DW2149 Weather Reports


Display with metric or nautical units.
time (UTC)temp
F
wind
direction
speed
MPH
gust
MPH
rain 1hr
in
rain 24hr
in
rain mn
in
humidity
%
barometer
mb
20260831001044 83 269 0.0 3.0 0.00 0.00 0.00 33 1009.2
20260831000649 84 197 0.0 3.0 0.00 0.00 0.00 36 1009.2
20260831000435 84 197 1.0 3.0 0.00 0.00 0.00 33 1009.3
20260831000228 84 222 0.0 3.0 0.00 0.00 0.00 33 1009.3
20260830235655 84 273 0.0 4.0 0.00 0.00 0.00 33 1009.2
20260830235448 84 273 0.0 4.0 0.00 0.00 0.00 34 1009.2
20260830235243 84 212 0.0 1.0 0.00 0.00 0.00 33 1009.2
20260830234700 84 233 0.0 7.0 0.00 0.00 0.00 33 1009.2
20260830234453 84 272 0.0 7.0 0.00 0.00 0.00 32 1009.2
20260830234248 84 272 0.0 7.0 0.00 0.00 0.00 33 1009.2
20260830234040 84 272 1.0 7.0 0.00 0.00 0.00 33 1009.2
20260830233828 85 272 1.0 7.0 0.00 0.00 0.00 34 1009.2
20260830233624 85 273 1.0 7.0 0.00 0.00 0.00 34 1009.2
20260830233413 85 267 0.0 3.0 0.00 0.00 0.00 32 1009.3
20260830233015 85 278 0.0 3.0 0.00 0.00 0.00 33 1009.2
20260830232811 85 280 0.0 3.0 0.00 0.00 0.00 34 1009.1
20260830232423 84 304 0.0 4.0 0.00 0.00 0.00 33 1009.2
20260830232214 84 308 0.0 4.0 0.00 0.00 0.00 34 1009.2
20260830232006 84 229 0.0 4.0 0.00 0.00 0.00 36 1009.2
20260830231759 84 232 1.0 0.0 0.00 0.00 0.00 34 1009.2
20260830231546 84 232 1.0 5.0 0.00 0.00 0.00 36 1009.3
20260830231339 84 246 1.0 5.0 0.00 0.00 0.00 34 1009.3
20260830231137 85 274 1.0 5.0 0.00 0.00 0.00 33 1009.4
20260830230924 85 310 1.0 5.0 0.00 0.00 0.00 33 1009.3
20260830230718 85 280 1.0 5.0 0.00 0.00 0.00 33 1009.3
20260830230508 85 327 0.0 5.0 0.00 0.00 0.00 33 1009.3
20260830230301 85 335 0.0 5.0 0.00 0.00 0.00 34 1009.4
20260830230053 85 246 0.0 5.0 0.00 0.00 0.00 33 1009.3
20260830225851 85 297 0.0 1.0 0.00 0.00 0.00 35 1009.3
20260830225647 85 314 0.0 0.0 0.00 0.00 0.00 34 1009.3
20260830225435 85 314 1.0 5.0 0.00 0.00 0.00 34 1009.4
20260830225227 85 0 1.0 7.0 0.00 0.00 0.00 35 1009.4
20260830225022 85 315 1.0 7.0 0.00 0.00 0.00 33 1009.6
20260830224812 85 217 1.0 7.0 0.00 0.00 0.00 33 1009.6
20260830224606 85 218 2.0 7.0 0.00 0.00 0.00 34 1009.6
20260830224353 85 242 2.0 7.0 0.00 0.00 0.00 34 1009.5
20260830224002 85 220 2.0 7.0 0.00 0.00 0.00 33 1009.6
20260830223755 85 207 2.0 7.0 0.00 0.00 0.00 34 1009.5
20260830223407 85 221 1.0 6.0 0.00 0.00 0.00 34 1009.5
20260830223203 85 196 1.0 6.0 0.00 0.00 0.00 34 1009.6
20260830222815 85 211 1.0 7.0 0.00 0.00 0.00 34 1009.6
20260830222608 85 254 1.0 7.0 0.00 0.00 0.00 35 1009.6
20260830222359 85 215 1.0 7.0 0.00 0.00 0.00 33 1009.7
20260830222156 85 215 1.0 7.0 0.00 0.00 0.00 34 1009.8
20260830221944 85 207 2.0 7.0 0.00 0.00 0.00 36 1009.8
20260830221732 85 186 2.0 7.0 0.00 0.00 0.00 34 1009.8
20260830221527 85 209 1.0 7.0 0.00 0.00 0.00 34 1009.8
20260830221316 84 265 1.0 7.0 0.00 0.00 0.00 35 1009.9
20260830221106 85 220 1.0 7.0 0.00 0.00 0.00 35 1009.9
20260830220858 85 236 1.0 7.0 0.00 0.00 0.00 37 1009.9
20260830220655 84 236 1.0 7.0 0.00 0.00 0.00 36 1009.9
20260830220303 84 273 1.0 7.0 0.00 0.00 0.00 35 1010.0
20260830220055 84 219 1.0 3.0 0.00 0.00 0.00 36 1010.0
20260830215842 84 193 1.0 5.0 0.00 0.00 0.00 35 1010.0
20260830215634 85 182 1.0 5.0 0.00 0.00 0.00 36 1010.0
20260830215243 85 215 1.0 5.0 0.00 0.00 0.00 35 1010.1
20260830215038 85 237 1.0 5.0 0.00 0.00 0.00 35 1010.2
20260830214826 84 285 1.0 6.0 0.00 0.00 0.00 37 1010.1
20260830214623 85 304 1.0 6.0 0.00 0.00 0.00 35 1010.1
20260830214419 84 287 1.0 6.0 0.00 0.00 0.00 35 1010.2
20260830214213 84 243 1.0 6.0 0.00 0.00 0.00 37 1010.2
20260830214002 84 227 1.0 6.0 0.00 0.00 0.00 37 1010.2
20260830213606 84 224 1.0 6.0 0.00 0.00 0.00 37 1010.2
20260830213211 83 212 0.0 6.0 0.00 0.00 0.00 38 1010.3
20260830213010 83 215 0.0 6.0 0.00 0.00 0.00 38 1010.2
20260830212804 83 163 0.0 5.0 0.00 0.00 0.00 38 1010.2
20260830212556 83 268 0.0 5.0 0.00 0.00 0.00 37 1010.2
20260830212352 83 200 1.0 5.0 0.00 0.00 0.00 39 1010.2
20260830212141 83 175 1.0 5.0 0.00 0.00 0.00 37 1010.2
20260830211935 84 169 1.0 5.0 0.00 0.00 0.00 37 1010.3
20260830211546 83 205 1.0 5.0 0.00 0.00 0.00 38 1010.3
20260830211338 83 199 0.0 3.0 0.00 0.00 0.00 38 1010.3
20260830211131 83 226 0.0 6.0 0.00 0.00 0.00 37 1010.3
20260830210918 83 211 0.0 6.0 0.00 0.00 0.00 37 1010.3
20260830210708 84 184 0.0 6.0 0.00 0.00 0.00 37 1010.3
20260830210321 84 238 1.0 6.0 0.00 0.00 0.00 36 1010.3
20260830205925 83 200 0.0 7.0 0.00 0.00 0.00 38 1010.3
20260830205714 83 195 0.0 7.0 0.00 0.00 0.00 38 1010.4
20260830205506 84 185 0.0 7.0 0.00 0.00 0.00 38 1010.4
20260830205259 83 198 1.0 7.0 0.00 0.00 0.00 38 1010.3
20260830205058 83 181 1.0 7.0 0.00 0.00 0.00 39 1010.3
20260830204848 83 186 1.0 7.0 0.00 0.00 0.00 37 1010.4
20260830204637 83 281 1.0 7.0 0.00 0.00 0.00 39 1010.3
20260830204429 83 280 1.0 7.0 0.00 0.00 0.00 37 1010.5
20260830204225 83 215 1.0 6.0 0.00 0.00 0.00 37 1010.3
20260830204019 83 151 1.0 6.0 0.00 0.00 0.00 38 1010.5
20260830203622 83 221 1.0 6.0 0.00 0.00 0.00 37 1010.4
20260830203224 83 238 1.0 6.0 0.00 0.00 0.00 36 1010.5
20260830203020 83 250 1.0 6.0 0.00 0.00 0.00 37 1010.5
20260830202815 83 244 0.0 5.0 0.00 0.00 0.00 39 1010.4
20260830202602 82 225 1.0 5.0 0.00 0.00 0.00 39 1010.5
20260830202359 82 223 1.0 5.0 0.00 0.00 0.00 39 1010.5
20260830202154 81 222 1.0 5.0 0.00 0.00 0.00 38 1010.4
20260830201941 82 236 1.0 5.0 0.00 0.00 0.00 39 1010.5
20260830201729 82 209 1.0 5.0 0.00 0.00 0.00 39 1010.4
20260830201518 81 210 1.0 5.0 0.00 0.00 0.00 39 1010.5
20260830201305 82 196 1.0 5.0 0.00 0.00 0.00 41 1010.5
20260830201100 82 220 1.0 7.0 0.00 0.00 0.00 39 1010.6
20260830200854 81 205 0.0 7.0 0.00 0.00 0.00 41 1010.5
20260830200651 81 215 0.0 7.0 0.00 0.00 0.00 39 1010.5
20260830200441 81 215 0.0 7.0 0.00 0.00 0.00 41 1010.5
20260830200228 81 207 0.0 7.0 0.00 0.00 0.00 43 1010.5
20260830200019 81 246 1.0 5.0 0.00 0.00 0.00 39 1010.5
20260830195806 81 207 0.0 5.0 0.00 0.00 0.00 41 1010.5
20260830195554 81 203 1.0 5.0 0.00 0.00 0.00 42 1010.5
20260830195342 81 289 1.0 5.0 0.00 0.00 0.00 39 1010.5
20260830195133 80 267 1.0 5.0 0.00 0.00 0.00 39 1010.5
20260830194737 81 213 2.0 7.0 0.00 0.00 0.00 39 1010.6
20260830194526 81 245 1.0 5.0 0.00 0.00 0.00 37 1010.6
20260830194319 80 254 1.0 5.0 0.00 0.00 0.00 38 1010.5
20260830194110 80 169 1.0 5.0 0.00 0.00 0.00 42 1010.6
20260830193904 81 159 0.0 5.0 0.00 0.00 0.00 41 1010.6
20260830193656 81 174 0.0 4.0 0.00 0.00 0.00 40 1010.6
20260830193450 81 242 0.0 4.0 0.00 0.00 0.00 38 1010.6
20260830193238 81 236 0.0 4.0 0.00 0.00 0.00 38 1010.6
20260830193027 81 209 0.0 2.0 0.00 0.00 0.00 36 1010.6
20260830192825 80 209 0.0 2.0 0.00 0.00 0.00 40 1010.7
20260830192616 80 209 0.0 7.0 0.00 0.00 0.00 36 1010.7
20260830192407 81 209 1.0 7.0 0.00 0.00 0.00 35 1010.7
20260830192156 81 209 1.0 5.0 0.00 0.00 0.00 36 1010.7
20260830191944 82 226 2.0 5.0 0.00 0.00 0.00 34 1010.8
20260830191739 82 282 2.0 5.0 0.00 0.00 0.00 33 1010.7
20260830191535 82 279 1.0 5.0 0.00 0.00 0.00 33 1010.7
20260830191324 82 294 1.0 5.0 0.00 0.00 0.00 33 1010.7
20260830191112 82 266 1.0 4.0 0.00 0.00 0.00 34 1010.7
20260830190910 82 219 0.0 3.0 0.00 0.00 0.00 34 1010.8
20260830190709 82 247 1.0 3.0 0.00 0.00 0.00 37 1010.8
20260830190507 82 281 1.0 7.0 0.00 0.00 0.00 33 1010.9
20260830190259 82 272 1.0 7.0 0.00 0.00 0.00 33 1010.9
20260830190051 82 271 2.0 5.0 0.00 0.00 0.00 33 1010.9
20260830185841 82 271 2.0 6.0 0.00 0.00 0.00 32 1011.0
20260830185632 82 286 1.0 6.0 0.00 0.00 0.00 34 1011.0
20260830185429 81 220 1.0 6.0 0.00 0.00 0.00 35 1010.9
20260830185218 81 220 1.0 6.0 0.00 0.00 0.00 33 1010.9
20260830185013 81 223 1.0 6.0 0.00 0.00 0.00 35 1011.0
20260830184801 80 228 1.0 6.0 0.00 0.00 0.00 35 1011.1
20260830184557 80 235 1.0 6.0 0.00 0.00 0.00 34 1011.1
20260830184206 80 209 1.0 6.0 0.00 0.00 0.00 35 1011.1
20260830183814 79 298 1.0 6.0 0.00 0.00 0.00 35 1011.1
20260830183607 79 209 0.0 6.0 0.00 0.00 0.00 36 1011.1
20260830183355 79 273 0.0 6.0 0.00 0.00 0.00 36 1011.2
20260830183001 78 215 1.0 6.0 0.00 0.00 0.00 37 1011.1
20260830182611 78 267 1.0 6.0 0.00 0.00 0.00 37 1011.1
20260830182224 77 206 1.0 6.0 0.00 0.00 0.00 37 1011.2
20260830182011 77 268 1.0 5.0 0.00 0.00 0.00 37 1011.2
20260830181804 77 168 1.0 5.0 0.00 0.00 0.00 38 1011.1
20260830181558 77 275 1.0 5.0 0.00 0.00 0.00 38 1011.1
20260830181351 77 275 1.0 5.0 0.00 0.00 0.00 38 1011.2
20260830180252 76 213 0.0 6.0 0.00 0.00 0.00 40 1011.1
20260830180046 76 213 1.0 6.0 0.00 0.00 0.00 40 1011.2
20260830175654 75 284 1.0 6.0 0.00 0.00 0.00 41 1011.1
20260830175450 75 284 1.0 6.0 0.00 0.00 0.00 40 1011.2
20260830175057 75 253 0.0 6.0 0.00 0.00 0.00 40 1011.3
20260830174848 75 211 0.0 4.0 0.00 0.00 0.00 42 1011.2
20260830174641 74 211 0.0 4.0 0.00 0.00 0.00 41 1011.2
20260830174431 74 211 0.0 4.0 0.00 0.00 0.00 41 1011.2
20260830174226 74 234 0.0 1.0 0.00 0.00 0.00 42 1011.2
20260830174020 74 234 0.0 1.0 0.00 0.00 0.00 41 1011.2
20260830173814 74 235 0.0 5.0 0.00 0.00 0.00 42 1011.3
20260830173609 74 235 1.0 5.0 0.00 0.00 0.00 42 1011.3
20260830173219 73 261 1.0 5.0 0.00 0.00 0.00 42 1011.3
20260830172823 73 280 1.0 5.0 0.00 0.00 0.00 43 1011.3
20260830172614 72 279 1.0 5.0 0.00 0.00 0.00 43 1011.3
20260830172408 72 279 1.0 5.0 0.00 0.00 0.00 44 1011.3
20260830172158 72 281 1.0 5.0 0.00 0.00 0.00 45 1011.3
20260830171946 71 281 1.0 5.0 0.00 0.00 0.00 44 1011.3
20260830171557 71 297 0.0 5.0 0.00 0.00 0.00 46 1011.3
20260830171345 70 349 1.0 5.0 0.00 0.00 0.00 46 1011.3
20260830171134 70 267 0.0 4.0 0.00 0.00 0.00 46 1011.4
20260830170926 69 267 0.0 4.0 0.00 0.00 0.00 45 1011.4
20260830170534 69 273 0.0 4.0 0.00 0.00 0.00 48 1011.4
20260830170331 68 213 0.0 2.0 0.00 0.00 0.00 49 1011.4
20260830170119 68 213 0.0 2.0 0.00 0.00 0.00 49 1011.3
20260830165351 66 186 0.0 4.0 0.00 0.00 0.00 50 1011.4
20260830165147 66 186 0.0 4.0 0.00 0.00 0.00 52 1011.4
20260830164936 65 244 0.0 4.0 0.00 0.00 0.00 53 1011.4
20260830164724 64 244 0.0 4.0 0.00 0.00 0.00 54 1011.4
20260830164513 64 245 0.0 4.0 0.00 0.00 0.00 56 1011.4
20260830164312 63 245 0.0 4.0 0.00 0.00 0.00 57 1011.4
20260830164108 63 245 0.0 4.0 0.00 0.00 0.00 58 1011.5
20260830163902 62 244 0.0 0.0 0.00 0.00 0.00 59 1011.4
20260830163657 62 244 0.0 1.0 0.00 0.00 0.00 59 1011.4
20260830163448 62 244 0.0 1.0 0.00 0.00 0.00 61 1011.5
20260830163239 61 244 0.0 1.0 0.00 0.00 0.00 61 1011.5
20260830163030 61 242 1.0 4.0 0.00 0.00 0.00 61 1011.5
20260830162825 60 255 0.0 3.0 0.00 0.00 0.00 62 1011.4
20260830162617 60 307 0.0 2.0 0.00 0.00 0.00 64 1011.4
20260830161856 59 309 0.0 1.0 0.00 0.00 0.00 74 1011.5
20260830161504 59 309 0.0 0.0 0.00 0.00 0.00 75 1011.5
20260830161253 59 309 0.0 0.0 0.00 0.00 0.00 75 1011.5
20260830160903 58 309 0.0 0.0 0.00 0.00 0.00 76 1011.5
20260830160511 58 309 0.0 0.0 0.00 0.00 0.00 75 1011.5
20260830160308 58 309 0.0 0.0 0.00 0.00 0.00 74 1011.5
20260830160056 57 309 0.0 0.0 0.00 0.00 0.00 74 1011.5
20260830155847 57 309 0.0 0.0 0.00 0.00 0.00 74 1011.5
20260830155638 57 309 0.0 0.0 0.00 0.00 0.00 74 1011.4
20260830155425 57 309 0.0 0.0 0.00 0.00 0.00 73 1011.4
20260830155221 57 309 0.0 0.0 0.00 0.00 0.00 73 1011.5
20260830155017 57 309 0.0 0.0 0.00 0.00 0.00 73 1011.5
20260830154814 56 309 0.0 0.0 0.00 0.00 0.00 73 1011.4
20260830154610 56 309 0.0 0.0 0.00 0.00 0.00 72 1011.4
20260830154404 56 309 0.0 0.0 0.00 0.00 0.00 72 1011.4
20260830154151 56 309 0.0 0.0 0.00 0.00 0.00 72 1011.4
20260830153942 56 309 0.0 0.0 0.00 0.00 0.00 72 1011.5
20260830153732 56 309 0.0 0.0 0.00 0.00 0.00 72 1011.5
20260830153338 56 309 0.0 0.0 0.00 0.00 0.00 71 1011.5
20260830153132 56 309 0.0 0.0 0.00 0.00 0.00 71 1011.4
20260830152737 55 309 0.0 0.0 0.00 0.00 0.00 71 1011.4
20260830152532 55 309 0.0 0.0 0.00 0.00 0.00 71 1011.4
20260830151957 55 309 0.0 0.0 0.00 0.00 0.00 70 1011.5
20260830151746 55 309 0.0 0.0 0.00 0.00 0.00 70 1011.5
20260830151538 55 309 0.0 0.0 0.00 0.00 0.00 70 1011.5
20260830151329 55 309 0.0 0.0 0.00 0.00 0.00 70 1011.6
20260830151121 55 309 0.0 0.0 0.00 0.00 0.00 70 1011.6
20260830150918 55 309 0.0 0.0 0.00 0.00 0.00 69 1011.6
20260830150716 55 309 0.0 0.0 0.00 0.00 0.00 69 1011.6
20260830150322 55 309 0.0 0.0 0.00 0.00 0.00 69 1011.6
20260830150114 55 309 0.0 0.0 0.00 0.00 0.00 69 1011.6
20260830145904 55 309 0.0 0.0 0.00 0.00 0.00 69 1011.6
20260830145509 55 309 0.0 0.0 0.00 0.00 0.00 69 1011.6
20260830145255 54 309 0.0 0.0 0.00 0.00 0.00 69 1011.5
20260830145050 54 309 0.0 0.0 0.00 0.00 0.00 69 1011.5
20260830144845 54 309 0.0 0.0 0.00 0.00 0.00 69 1011.5
20260830144643 54 309 0.0 0.0 0.00 0.00 0.00 69 1011.5
20260830144435 54 309 0.0 0.0 0.00 0.00 0.00 68 1011.5
20260830144231 54 309 0.0 0.0 0.00 0.00 0.00 68 1011.5
20260830144022 54 309 0.0 0.0 0.00 0.00 0.00 68 1011.5
20260830143815 54 309 0.0 0.0 0.00 0.00 0.00 68 1011.5
20260830143418 54 309 0.0 0.0 0.00 0.00 0.00 68 1011.5
20260830143212 54 309 0.0 0.0 0.00 0.00 0.00 68 1011.5
20260830143009 54 309 0.0 0.0 0.00 0.00 0.00 68 1011.5
20260830142800 54 309 0.0 0.0 0.00 0.00 0.00 68 1011.5
20260830142557 54 309 0.0 0.0 0.00 0.00 0.00 68 1011.5
20260830142349 54 309 0.0 0.0 0.00 0.00 0.00 68 1011.4
20260830142139 54 309 0.0 0.0 0.00 0.00 0.00 68 1011.4
20260830141936 54 309 0.0 0.0 0.00 0.00 0.00 68 1011.4
20260830141724 54 309 0.0 0.0 0.00 0.00 0.00 68 1011.4
20260830141521 54 309 0.0 0.0 0.00 0.00 0.00 68 1011.4
20260830141318 54 309 0.0 0.0 0.00 0.00 0.00 68 1011.3
20260830141117 54 309 0.0 0.0 0.00 0.00 0.00 68 1011.3
20260830140907 54 309 0.0 0.0 0.00 0.00 0.00 68 1011.3
20260830140522 54 309 0.0 0.0 0.00 0.00 0.00 68 1011.2
20260830140315 54 309 0.0 0.0 0.00 0.00 0.00 67 1011.3
20260830135857 54 309 0.0 0.0 0.00 0.00 0.00 67 1011.3
20260830135651 54 309 0.0 0.0 0.00 0.00 0.00 67 1011.2
20260830135443 54 309 0.0 0.0 0.00 0.00 0.00 67 1011.2
20260830135241 54 309 0.0 0.0 0.00 0.00 0.00 67 1011.2
20260830135034 54 309 0.0 0.0 0.00 0.00 0.00 67 1011.2
20260830134825 54 309 0.0 0.0 0.00 0.00 0.00 67 1011.2
20260830134614 54 309 0.0 0.0 0.00 0.00 0.00 67 1011.2
20260830134405 54 309 0.0 0.0 0.00 0.00 0.00 67 1011.1
20260830134202 54 309 0.0 0.0 0.00 0.00 0.00 67 1011.2
20260830133952 54 309 0.0 0.0 0.00 0.00 0.00 67 1011.2
20260830133602 54 309 0.0 0.0 0.00 0.00 0.00 67 1011.1
20260830133349 54 309 0.0 0.0 0.00 0.00 0.00 67 1011.1
20260830133141 54 309 0.0 0.0 0.00 0.00 0.00 67 1011.0
20260830132934 54 309 0.0 0.0 0.00 0.00 0.00 67 1011.0
20260830132721 54 309 0.0 0.0 0.00 0.00 0.00 67 1011.0
20260830132510 54 309 0.0 0.0 0.00 0.00 0.00 67 1011.0
20260830132301 54 309 0.0 0.0 0.00 0.00 0.00 66 1011.0
20260830131745 54 309 0.0 0.0 0.00 0.00 0.00 66 1011.0
20260830131533 54 309 0.0 0.0 0.00 0.00 0.00 66 1011.0
20260830131323 54 309 0.0 0.0 0.00 0.00 0.00 66 1010.9
20260830131122 54 309 0.0 0.0 0.00 0.00 0.00 66 1010.9
20260830130734 54 309 0.0 0.0 0.00 0.00 0.00 66 1010.8
20260830130522 54 309 0.0 0.0 0.00 0.00 0.00 66 1010.9
20260830130315 54 309 0.0 0.0 0.00 0.00 0.00 66 1010.9
20260830130112 54 309 0.0 0.0 0.00 0.00 0.00 66 1010.9
20260830125902 54 309 0.0 0.0 0.00 0.00 0.00 65 1010.8
20260830125653 54 309 0.0 0.0 0.00 0.00 0.00 66 1010.9
20260830125444 54 309 0.0 0.0 0.00 0.00 0.00 65 1010.8
20260830125242 54 309 0.0 0.0 0.00 0.00 0.00 65 1010.9
20260830125039 54 309 0.0 0.0 0.00 0.00 0.00 65 1010.8
20260830124830 54 309 0.0 0.0 0.00 0.00 0.00 65 1010.8
20260830124619 54 309 0.0 0.0 0.00 0.00 0.00 65 1010.8
20260830124411 54 309 0.0 0.0 0.00 0.00 0.00 65 1010.8
20260830124206 54 309 0.0 0.0 0.00 0.00 0.00 65 1010.8
20260830123955 55 309 0.0 0.0 0.00 0.00 0.00 65 1010.9
20260830123557 55 309 0.0 0.0 0.00 0.00 0.00 65 1010.8
20260830123205 55 309 0.0 0.0 0.00 0.00 0.00 65 1010.8
20260830122956 55 309 0.0 0.0 0.00 0.00 0.00 65 1010.8
20260830122753 55 309 0.0 0.0 0.00 0.00 0.00 65 1010.8
20260830122543 55 309 0.0 0.0 0.00 0.00 0.00 65 1010.7
20260830122337 55 309 0.0 0.0 0.00 0.00 0.00 65 1010.7
20260830122134 55 309 0.0 0.0 0.00 0.00 0.00 65 1010.7
20260830121927 55 309 0.0 0.0 0.00 0.00 0.00 65 1010.7
20260830121722 55 309 0.0 0.0 0.00 0.00 0.00 65 1010.7
20260830121511 55 309 0.0 0.0 0.00 0.00 0.00 65 1010.7
20260830121309 55 309 0.0 0.0 0.00 0.00 0.00 64 1010.7
20260830121103 55 309 0.0 0.0 0.00 0.00 0.00 64 1010.7
20260830120855 55 309 0.0 0.0 0.00 0.00 0.00 64 1010.7
20260830120648 55 309 0.0 0.0 0.00 0.00 0.00 64 1010.7
20260830120438 55 309 0.0 0.0 0.00 0.00 0.00 64 1010.6
20260830120226 55 309 0.0 0.0 0.00 0.00 0.00 64 1010.7
20260830120018 55 309 0.0 0.0 0.00 0.00 0.00 64 1010.7
20260830115816 55 309 0.0 0.0 0.00 0.00 0.00 64 1010.7
20260830115613 55 309 0.0 0.0 0.00 0.00 0.00 64 1010.7
20260830115403 55 309 0.0 0.0 0.00 0.00 0.00 64 1010.7
20260830115159 55 309 0.0 0.0 0.00 0.00 0.00 64 1010.7
20260830114955 55 309 0.0 0.0 0.00 0.00 0.00 64 1010.7
20260830114744 55 309 0.0 0.0 0.00 0.00 0.00 64 1010.6
20260830114539 55 309 0.0 0.0 0.00 0.00 0.00 64 1010.6
20260830114331 55 309 0.0 0.0 0.00 0.00 0.00 64 1010.7
20260830114120 55 309 0.0 0.0 0.00 0.00 0.00 64 1010.6
20260830113904 55 309 0.0 0.0 0.00 0.00 0.00 64 1010.6
20260830113701 55 309 0.0 0.0 0.00 0.00 0.00 64 1010.7
20260830113457 55 309 0.0 0.0 0.00 0.00 0.00 64 1010.7
20260830113244 55 309 0.0 0.0 0.00 0.00 0.00 64 1010.7
20260830113031 55 309 0.0 0.0 0.00 0.00 0.00 64 1010.7
20260830112827 55 309 0.0 0.0 0.00 0.00 0.00 64 1010.8
20260830112623 55 309 0.0 0.0 0.00 0.00 0.00 64 1010.7
20260830112420 55 309 0.0 0.0 0.00 0.00 0.00 64 1010.7
20260830112215 55 309 0.0 0.0 0.00 0.00 0.00 64 1010.7
20260830112007 55 309 0.0 0.0 0.00 0.00 0.00 64 1010.7
20260830111759 55 309 0.0 0.0 0.00 0.00 0.00 64 1010.9
20260830111548 55 309 0.0 0.0 0.00 0.00 0.00 64 1010.7
20260830111340 55 309 0.0 0.0 0.00 0.00 0.00 64 1010.9
20260830111131 55 309 0.0 0.0 0.00 0.00 0.00 64 1010.8
20260830110923 55 309 0.0 0.0 0.00 0.00 0.00 64 1010.9
20260830110711 55 309 0.0 0.0 0.00 0.00 0.00 64 1010.9
20260830110503 55 309 0.0 0.0 0.00 0.00 0.00 64 1010.9
20260830110254 56 309 0.0 0.0 0.00 0.00 0.00 64 1010.9
20260830110049 56 309 0.0 0.0 0.00 0.00 0.00 63 1010.9
20260830105845 56 309 0.0 0.0 0.00 0.00 0.00 63 1010.8
20260830105634 56 309 0.0 0.0 0.00 0.00 0.00 63 1010.9
20260830105430 56 309 0.0 0.0 0.00 0.00 0.00 63 1010.8
20260830105224 56 309 0.0 0.0 0.00 0.00 0.00 63 1010.8
20260830105008 56 309 0.0 0.0 0.00 0.00 0.00 63 1010.8
20260830104758 56 309 0.0 0.0 0.00 0.00 0.00 63 1010.8
20260830104551 56 309 0.0 0.0 0.00 0.00 0.00 63 1010.9
20260830104345 56 309 0.0 0.0 0.00 0.00 0.00 63 1010.9
20260830103952 56 309 0.0 0.0 0.00 0.00 0.00 63 1010.9
20260830103601 56 309 0.0 0.0 0.00 0.00 0.00 63 1011.0
20260830103356 56 309 0.0 0.0 0.00 0.00 0.00 63 1011.0
20260830103149 56 309 0.0 0.0 0.00 0.00 0.00 63 1011.0
20260830102936 56 309 0.0 0.0 0.00 0.00 0.00 63 1011.0
20260830102724 56 309 0.0 0.0 0.00 0.00 0.00 63 1011.0
20260830102515 56 309 0.0 0.0 0.00 0.00 0.00 63 1010.9
20260830102307 56 309 0.0 0.0 0.00 0.00 0.00 63 1011.0
20260830102104 56 309 0.0 0.0 0.00 0.00 0.00 63 1010.9
20260830101709 56 309 0.0 0.0 0.00 0.00 0.00 63 1010.9
20260830101458 56 309 0.0 0.0 0.00 0.00 0.00 63 1010.9
20260830101254 56 309 0.0 0.0 0.00 0.00 0.00 62 1010.9
20260830101050 56 309 0.0 0.0 0.00 0.00 0.00 62 1010.9
20260830100845 56 309 0.0 0.0 0.00 0.00 0.00 62 1010.9
20260830100632 56 309 0.0 0.0 0.00 0.00 0.00 62 1011.0
20260830100425 56 309 0.0 0.0 0.00 0.00 0.00 62 1010.9
20260830095847 56 309 0.0 0.0 0.00 0.00 0.00 62 1011.0
20260830095642 56 309 0.0 0.0 0.00 0.00 0.00 62 1011.0
20260830095438 56 309 0.0 0.0 0.00 0.00 0.00 62 1011.0
20260830095233 56 309 0.0 0.0 0.00 0.00 0.00 62 1011.0
20260830095020 56 309 0.0 0.0 0.00 0.00 0.00 62 1011.0
20260830094813 56 309 0.0 0.0 0.00 0.00 0.00 62 1011.0
20260830094604 57 309 0.0 0.0 0.00 0.00 0.00 62 1011.0
20260830094353 57 309 0.0 0.0 0.00 0.00 0.00 62 1011.0
20260830094147 57 309 0.0 0.0 0.00 0.00 0.00 62 1011.0
20260830093938 57 309 0.0 0.0 0.00 0.00 0.00 61 1011.0
20260830093734 57 309 0.0 0.0 0.00 0.00 0.00 61 1011.0
20260830093531 57 309 0.0 0.0 0.00 0.00 0.00 61 1011.0
20260830093134 57 309 0.0 0.0 0.00 0.00 0.00 61 1011.0
20260830092930 57 309 0.0 0.0 0.00 0.00 0.00 61 1010.9
20260830092728 57 309 0.0 0.0 0.00 0.00 0.00 61 1010.9
20260830092514 57 309 0.0 0.0 0.00 0.00 0.00 61 1011.0
20260830092306 57 309 0.0 0.0 0.00 0.00 0.00 61 1011.0
20260830091916 57 309 0.0 0.0 0.00 0.00 0.00 61 1011.0
20260830091708 57 309 0.0 0.0 0.00 0.00 0.00 61 1011.0
20260830091456 57 309 0.0 0.0 0.00 0.00 0.00 61 1011.0
20260830091252 57 309 0.0 0.0 0.00 0.00 0.00 61 1011.0
20260830090900 57 309 0.0 0.0 0.00 0.00 0.00 61 1011.1
20260830090649 57 309 0.0 0.0 0.00 0.00 0.00 61 1011.0
20260830090436 57 309 0.0 0.0 0.00 0.00 0.00 61 1011.0
20260830090233 57 309 0.0 0.0 0.00 0.00 0.00 61 1011.0
20260830090028 57 309 0.0 0.0 0.00 0.00 0.00 61 1011.0
20260830085818 58 309 0.0 0.0 0.00 0.00 0.00 61 1011.0
20260830085607 58 309 0.0 0.0 0.00 0.00 0.00 61 1011.0
20260830085401 58 309 0.0 0.0 0.00 0.00 0.00 61 1011.0
20260830085152 58 309 0.0 0.0 0.00 0.00 0.00 61 1011.1
20260830084435 58 309 0.0 0.0 0.00 0.00 0.00 60 1011.1
20260830084228 58 309 0.0 0.0 0.00 0.00 0.00 60 1011.1
20260830084025 58 309 0.0 0.0 0.00 0.00 0.00 60 1011.1
20260830083823 58 309 0.0 0.0 0.00 0.00 0.00 60 1011.1
20260830083620 58 309 0.0 0.0 0.00 0.00 0.00 60 1011.2
20260830083408 58 309 0.0 0.0 0.00 0.00 0.00 60 1011.1
20260830083205 58 309 0.0 0.0 0.00 0.00 0.00 60 1011.1
20260830083002 58 309 0.0 0.0 0.00 0.00 0.00 60 1011.2
20260830082750 58 309 0.0 0.0 0.00 0.00 0.00 60 1011.1
20260830082544 58 309 0.0 0.0 0.00 0.00 0.00 60 1011.1
20260830082152 58 309 0.0 0.0 0.00 0.00 0.00 60 1011.2
20260830081943 58 309 0.0 0.0 0.00 0.00 0.00 60 1011.1
20260830081740 58 309 0.0 0.0 0.00 0.00 0.00 60 1011.1
20260830081533 58 309 0.0 0.0 0.00 0.00 0.00 60 1011.1
20260830081144 58 309 0.0 0.0 0.00 0.00 0.00 60 1011.1
20260830080936 58 309 0.0 0.0 0.00 0.00 0.00 60 1011.1
20260830080725 59 309 0.0 0.0 0.00 0.00 0.00 60 1011.2
20260830080515 59 309 0.0 0.0 0.00 0.00 0.00 59 1011.2
20260830080121 59 309 0.0 0.0 0.00 0.00 0.00 59 1011.2
20260830075910 59 309 0.0 0.0 0.00 0.00 0.00 59 1011.2
20260830075707 59 309 0.0 0.0 0.00 0.00 0.00 59 1011.3
20260830075504 59 309 0.0 0.0 0.00 0.00 0.00 59 1011.2
20260830075251 59 309 0.0 0.0 0.00 0.00 0.00 59 1011.2
20260830075047 59 309 0.0 0.0 0.00 0.00 0.00 59 1011.3
20260830074836 59 309 0.0 0.0 0.00 0.00 0.00 59 1011.2
20260830074633 59 309 0.0 0.0 0.00 0.00 0.00 59 1011.2
20260830074426 59 309 0.0 0.0 0.00 0.00 0.00 59 1011.2
20260830074220 59 309 0.0 0.0 0.00 0.00 0.00 59 1011.2
20260830074014 59 309 0.0 0.0 0.00 0.00 0.00 59 1011.3
20260830073807 59 309 0.0 0.0 0.00 0.00 0.00 59 1011.3
20260830073605 59 309 0.0 0.0 0.00 0.00 0.00 59 1011.3
20260830073352 59 309 0.0 0.0 0.00 0.00 0.00 59 1011.3
20260830073145 59 309 0.0 0.0 0.00 0.00 0.00 59 1011.4
20260830072939 59 309 0.0 0.0 0.00 0.00 0.00 59 1011.4
20260830072552 59 309 0.0 0.0 0.00 0.00 0.00 59 1011.4
20260830072345 60 309 0.0 0.0 0.00 0.00 0.00 58 1011.4
20260830071624 60 309 0.0 0.0 0.00 0.00 0.00 58 1011.4
20260830071414 60 309 0.0 0.0 0.00 0.00 0.00 58 1011.5
20260830071204 60 309 0.0 0.0 0.00 0.00 0.00 58 1011.3
20260830071001 60 309 0.0 0.0 0.00 0.00 0.00 58 1011.4
20260830070751 60 309 0.0 0.0 0.00 0.00 0.00 58 1011.4
20260830070538 60 309 0.0 0.0 0.00 0.00 0.00 58 1011.3
20260830070150 60 309 0.0 0.0 0.00 0.00 0.00 58 1011.4
20260830065945 60 309 0.0 0.0 0.00 0.00 0.00 58 1011.3
20260830065558 60 309 0.0 0.0 0.00 0.00 0.00 58 1011.5
20260830065357 60 309 0.0 0.0 0.00 0.00 0.00 58 1011.4
20260830065154 61 309 0.0 0.0 0.00 0.00 0.00 58 1011.5
20260830064946 61 309 0.0 0.0 0.00 0.00 0.00 57 1011.4
20260830064743 61 309 0.0 0.0 0.00 0.00 0.00 57 1011.4
20260830064530 61 309 0.0 0.0 0.00 0.00 0.00 57 1011.5
20260830064141 61 309 0.0 0.0 0.00 0.00 0.00 57 1011.5
20260830063930 61 309 0.0 0.0 0.00 0.00 0.00 57 1011.5
20260830063721 61 309 0.0 0.0 0.00 0.01 0.00 57 1011.4
20260830063515 61 309 0.0 0.0 0.00 0.01 0.00 57 1011.3
20260830063307 61 309 0.0 0.0 0.00 0.01 0.00 57 1011.4
20260830063101 61 309 0.0 0.0 0.00 0.01 0.00 56 1011.4
20260830062854 61 309 0.0 0.0 0.00 0.01 0.00 56 1011.4
20260830062648 61 309 0.0 0.0 0.00 0.01 0.00 56 1011.3
20260830062447 62 309 0.0 0.0 0.00 0.01 0.00 56 1011.4
20260830062244 62 309 0.0 0.0 0.00 0.01 0.00 56 1011.3
20260830062037 62 309 0.0 0.0 0.00 0.01 0.00 56 1011.3
20260830061833 62 309 0.0 0.0 0.00 0.01 0.00 56 1011.3
20260830061625 62 309 0.0 0.0 0.00 0.01 0.00 56 1011.3
20260830061421 62 309 0.0 0.0 0.00 0.01 0.00 55 1011.3
20260830061213 62 309 0.0 0.0 0.00 0.01 0.00 55 1011.3
20260830060639 62 309 0.0 0.0 0.00 0.01 0.00 55 1011.3
20260830060426 62 309 0.0 0.0 0.00 0.01 0.00 55 1011.3
20260830060036 63 309 0.0 0.0 0.00 0.01 0.00 55 1011.4
20260830055828 63 309 0.0 0.0 0.00 0.01 0.00 54 1011.4
20260830055615 63 309 0.0 0.0 0.00 0.01 0.00 54 1011.3
20260830055402 63 309 0.0 0.0 0.00 0.01 0.00 54 1011.4
20260830055157 63 309 0.0 0.0 0.00 0.01 0.00 54 1011.4
20260830054956 63 309 0.0 0.0 0.00 0.01 0.00 54 1011.4
20260830054750 63 309 0.0 0.0 0.00 0.01 0.00 54 1011.3
20260830054542 63 309 0.0 0.0 0.00 0.01 0.00 54 1011.4
20260830054335 63 309 0.0 0.0 0.00 0.01 0.00 54 1011.4
20260830054125 63 309 0.0 0.0 0.00 0.01 0.00 54 1011.4
20260830053728 64 309 0.0 0.0 0.00 0.01 0.00 53 1011.4
20260830053526 64 309 0.0 0.0 0.00 0.01 0.00 53 1011.4
20260830053315 64 309 0.0 0.0 0.00 0.01 0.00 53 1011.4
20260830053114 64 309 0.0 0.0 0.00 0.01 0.00 53 1011.4
20260830052909 64 309 0.0 0.0 0.00 0.01 0.00 53 1011.4
20260830052656 64 309 0.0 0.0 0.00 0.01 0.00 53 1011.5
20260830052449 64 309 0.0 0.0 0.00 0.01 0.00 53 1011.5
20260830052054 64 309 0.0 0.0 0.00 0.01 0.00 52 1011.5
20260830051851 65 309 0.0 0.0 0.00 0.01 0.00 52 1011.6
20260830051649 65 309 0.0 0.0 0.00 0.01 0.00 52 1011.6
20260830051435 65 309 0.0 0.0 0.00 0.01 0.00 52 1011.5
20260830051229 65 309 0.0 0.0 0.00 0.01 0.00 52 1011.6
20260830051022 65 309 0.0 0.0 0.00 0.01 0.00 52 1011.6
20260830050810 65 309 0.0 0.0 0.00 0.01 0.00 52 1011.6
20260830050606 65 309 0.0 0.0 0.00 0.01 0.00 52 1011.6
20260830050356 65 309 0.0 0.0 0.00 0.01 0.00 52 1011.7
20260830050151 65 309 0.0 0.0 0.00 0.01 0.00 52 1011.6
20260830045753 66 309 0.0 0.0 0.00 0.01 0.00 51 1011.6
20260830045547 66 309 0.0 0.0 0.00 0.01 0.00 51 1011.6
20260830045345 66 309 0.0 0.0 0.00 0.01 0.00 51 1011.6
20260830045139 66 309 0.0 0.0 0.00 0.01 0.00 51 1011.6
20260830044927 66 309 0.0 0.0 0.00 0.01 0.00 51 1011.6
20260830044715 66 309 0.0 0.0 0.00 0.01 0.00 51 1011.6
20260830044504 66 309 0.0 0.0 0.00 0.01 0.00 50 1011.5
20260830044255 67 309 0.0 0.0 0.00 0.01 0.00 50 1011.5
20260830043905 67 309 0.0 0.0 0.00 0.01 0.00 50 1011.6
20260830043701 67 309 0.0 0.0 0.00 0.01 0.00 50 1011.6
20260830043122 67 309 0.0 0.0 0.00 0.01 0.00 49 1011.5
20260830042916 67 309 0.0 0.0 0.00 0.01 0.00 49 1011.6
20260830042712 67 309 0.0 0.0 0.00 0.01 0.00 49 1011.5
20260830042504 68 309 0.0 0.0 0.00 0.01 0.00 49 1011.5
20260830042254 68 309 0.0 0.0 0.00 0.01 0.00 49 1011.5
20260830042051 68 309 0.0 0.0 0.00 0.01 0.00 49 1011.5
20260830041656 68 309 0.0 0.0 0.00 0.01 0.00 48 1011.5
20260830041446 68 309 0.0 0.0 0.00 0.01 0.00 48 1011.5
20260830041238 68 309 0.0 0.0 0.00 0.01 0.00 48 1011.4
20260830041027 69 309 0.0 0.0 0.00 0.01 0.00 48 1011.4
20260830040818 69 309 0.0 0.0 0.00 0.01 0.00 48 1011.4
20260830040606 69 309 0.0 0.0 0.00 0.01 0.00 47 1011.4
20260830040353 69 309 0.0 0.0 0.00 0.01 0.00 47 1011.3
20260830040151 69 309 0.0 0.0 0.00 0.01 0.00 47 1011.3
20260830035940 69 309 0.0 0.0 0.00 0.01 0.00 47 1011.3
20260830035738 69 309 0.0 0.0 0.00 0.01 0.00 46 1011.3
20260830035531 70 309 0.0 0.0 0.00 0.01 0.00 46 1011.3
20260830035323 70 309 0.0 0.0 0.00 0.01 0.00 46 1011.3
20260830035110 70 309 0.0 0.0 0.00 0.01 0.00 46 1011.2
20260830034908 70 309 0.0 0.0 0.00 0.01 0.00 45 1011.2
20260830034515 70 309 0.0 0.0 0.00 0.01 0.00 45 1011.2
20260830034305 71 309 0.0 0.0 0.00 0.01 0.00 45 1011.2
20260830034052 71 309 0.0 0.0 0.00 0.01 0.00 44 1011.2
20260830033704 71 309 0.0 0.0 0.00 0.01 0.00 44 1011.2
20260830033458 71 309 0.0 0.0 0.00 0.01 0.00 44 1011.2
20260830033256 71 309 0.0 0.0 0.00 0.01 0.00 44 1011.1
20260830033054 72 309 0.0 0.0 0.00 0.01 0.00 44 1011.1
20260830032841 72 309 0.0 0.0 0.00 0.01 0.00 44 1011.1
20260830032637 72 309 0.0 0.0 0.00 0.01 0.00 44 1011.1
20260830032239 72 309 0.0 0.0 0.00 0.01 0.00 44 1011.1
20260830032027 73 309 0.0 0.0 0.00 0.01 0.00 43 1011.1
20260830031815 73 309 0.0 0.0 0.00 0.01 0.00 43 1011.0
20260830031611 73 309 0.0 0.0 0.00 0.01 0.00 43 1011.0
20260830031404 73 309 0.0 0.0 0.00 0.01 0.00 43 1010.9
20260830031151 73 309 0.0 0.0 0.00 0.01 0.00 43 1011.0
20260830030948 74 309 0.0 0.0 0.00 0.01 0.00 42 1010.9
20260830030737 74 309 0.0 0.0 0.00 0.01 0.00 42 1010.9
20260830030527 74 309 0.0 0.0 0.00 0.01 0.00 42 1010.9
20260830030323 74 309 0.0 0.0 0.00 0.01 0.00 42 1010.9
20260830030116 74 309 0.0 0.0 0.00 0.01 0.00 42 1010.8
20260830025729 75 309 0.0 0.0 0.00 0.01 0.00 42 1010.7
20260830025523 75 309 0.0 0.0 0.00 0.01 0.00 41 1010.7
20260830025315 75 309 0.0 0.0 0.00 0.01 0.00 41 1010.8
20260830025106 75 309 0.0 0.0 0.00 0.01 0.00 41 1010.7
20260830024902 76 309 0.0 0.0 0.00 0.01 0.00 41 1010.8
20260830024701 76 309 0.0 0.0 0.00 0.01 0.00 40 1010.7
20260830024455 76 309 0.0 0.0 0.00 0.01 0.00 40 1010.7
20260830024251 76 309 0.0 0.0 0.00 0.01 0.00 40 1010.7
20260830023902 77 309 0.0 0.0 0.00 0.01 0.00 40 1010.7
20260830023653 77 309 0.0 0.0 0.00 0.01 0.00 39 1010.7
20260830023302 77 309 0.0 0.0 0.00 0.01 0.00 39 1010.7
20260830023057 78 309 0.0 0.0 0.00 0.01 0.00 39 1010.6
20260830022855 78 309 0.0 0.0 0.00 0.01 0.00 38 1010.6
20260830022651 78 309 0.0 0.0 0.00 0.01 0.00 38 1010.6
20260830022446 78 309 0.0 0.0 0.00 0.01 0.00 38 1010.6
20260830022233 78 309 0.0 1.0 0.00 0.01 0.00 38 1010.5
20260830022022 79 309 0.0 0.0 0.00 0.01 0.00 38 1010.6
20260830021811 79 309 0.0 0.0 0.00 0.01 0.00 38 1010.6
20260830021559 79 309 0.0 0.0 0.00 0.01 0.00 37 1010.7
20260830021352 79 309 0.0 0.0 0.00 0.01 0.00 37 1010.7
20260830020957 80 309 0.0 0.0 0.00 0.01 0.00 37 1010.7
20260830020750 80 309 0.0 1.0 0.00 0.01 0.00 37 1010.8
20260830020546 80 309 0.0 0.0 0.00 0.01 0.00 37 1010.8
20260830020339 80 309 0.0 0.0 0.00 0.01 0.00 37 1010.7
20260830020128 80 309 0.0 0.0 0.00 0.01 0.00 36 1010.7
20260830015925 80 309 0.0 0.0 0.00 0.01 0.00 36 1010.7
20260830015717 80 309 0.0 0.0 0.00 0.01 0.00 36 1010.7
20260830015508 81 309 0.0 1.0 0.00 0.01 0.00 36 1010.7
20260830015306 81 273 0.0 4.0 0.00 0.01 0.00 35 1010.7
20260830014917 81 273 0.0 2.0 0.00 0.01 0.00 35 1010.7
20260830014524 81 273 0.0 0.0 0.00 0.01 0.00 35 1010.7
20260830014321 81 273 0.0 1.0 0.00 0.01 0.00 35 1010.7
20260830014117 81 273 0.0 1.0 0.00 0.01 0.00 34 1010.7
20260830013912 81 273 0.0 0.0 0.00 0.01 0.00 34 1010.8
20260830013659 81 273 0.0 2.0 0.00 0.01 0.00 35 1010.8
20260830013457 82 202 0.0 0.0 0.00 0.01 0.00 35 1010.9
20260830013255 82 202 0.0 0.0 0.00 0.01 0.00 34 1010.8
20260830013052 82 202 0.0 1.0 0.00 0.01 0.00 33 1010.8
20260830012702 82 201 0.0 1.0 0.00 0.01 0.00 33 1010.8
20260830012457 82 201 0.0 0.0 0.00 0.01 0.00 33 1010.8
20260830012252 82 201 0.0 0.0 0.00 0.01 0.00 32 1010.8
20260830012045 82 201 0.0 0.0 0.00 0.01 0.00 33 1010.8
20260830011840 82 201 0.0 2.0 0.00 0.01 0.00 33 1010.8
20260830011441 83 324 0.0 0.0 0.00 0.01 0.00 33 1010.7
20260830011233 83 324 0.0 1.0 0.00 0.01 0.00 32 1010.7
20260830010844 83 324 0.0 2.0 0.00 0.01 0.00 31 1010.8
20260830010458 83 324 0.0 5.0 0.00 0.01 0.00 32 1010.8
20260830010251 83 311 0.0 5.0 0.00 0.01 0.00 32 1010.9
20260830005902 83 213 1.0 5.0 0.00 0.01 0.00 32 1010.8
20260830005656 83 211 1.0 5.0 0.00 0.01 0.00 32 1010.8
20260830005444 84 294 0.0 5.0 0.00 0.01 0.00 32 1010.8
20260830005233 84 303 0.0 5.0 0.00 0.01 0.00 31 1010.8
20260830004837 84 282 0.0 3.0 0.00 0.01 0.00 32 1010.7
20260830004635 84 203 0.0 0.0 0.00 0.01 0.00 31 1010.6
20260830004056 84 203 0.0 5.0 0.00 0.01 0.00 31 1010.7
20260830003850 85 166 0.0 4.0 0.00 0.01 0.00 31 1010.6
20260830003644 85 269 0.0 4.0 0.00 0.01 0.00 31 1010.5
20260830003436 85 269 0.0 4.0 0.00 0.01 0.00 31 1010.6
20260830003233 85 269 0.0 4.0 0.00 0.01 0.00 31 1010.6
20260830002838 85 219 0.0 5.0 0.00 0.01 0.00 31 1010.6
20260830002627 85 194 0.0 5.0 0.00 0.01 0.00 31 1010.6
20260830002229 84 191 0.0 5.0 0.00 0.01 0.00 31 1010.6
20260830002026 85 191 0.0 7.0 0.00 0.01 0.00 31 1010.6
20260830001630 85 196 1.0 7.0 0.00 0.01 0.00 31 1010.7
20260830001421 85 115 1.0 7.0 0.00 0.01 0.00 31 1010.6